Location: Wellington
(41.3000°S, 174.8000°E)
Time: 03:24:33
(UTC+12:00)

ISS - Visible Passes

Search period start: 17 May 2021 00:00
Search period end: 27 May 2021 00:00
Orbit: 417 x 422 km, 51.6° (Epoch: 15 May)

Date Brightness Start Highest point End Pass type
(mag) Time Alt. Az. Time Alt. Az. Time Alt. Az.
19 May -0.3 06:28:02 10° NNE 06:29:27 12° NE 06:30:54 10° ENE visible
21 May -1.9 06:27:50 10° NNW 06:30:59 34° NE 06:34:08 10° ESE visible
22 May -1.1 05:41:01 10° N 05:43:39 21° NE 05:46:17 10° E visible
23 May -0.6 04:55:40 12° NE 04:56:21 12° NE 04:57:49 10° ENE visible
23 May -3.8 06:29:17 10° WNW 06:32:43 81° SW 06:36:11 10° SE visible
24 May -3.3 05:44:13 39° NNW 05:45:15 60° NE 05:48:41 10° ESE visible
25 May -1.2 04:59:26 22° E 04:59:26 22° E 05:01:02 10° ESE visible
25 May -2.9 06:32:26 16° W 06:34:40 34° SSW 06:37:52 10° SE visible
26 May -3.3 05:47:24 48° S 05:47:24 48° S 05:50:28 10° SE visible
